, NM

(GMT )
Holloman AFB

Weather History for KHMN - December, 2012

Change the Weather History Date:

Wednesday, December 19, 2012

  Actual Average Record
Temperature  
Mean Temperature 41 °F -  
Max Temperature 54 °F 49 °F 66 °F (2013)
Min Temperature 27 °F 23 °F 10 °F (1996)
Degree Days  
Heating Degree Days 24    
Moisture  
Dew Point 16 °F    
Average Humidity 29    
Maximum Humidity 45    
Minimum Humidity 15    
Precipitation  
Precipitation 0.03 in - - ()
Sea Level Pressure  
Sea Level Pressure 29.79 in    
Wind  
Wind Speed 21 mph (West)    
Max Wind Speed 44 mph    
Max Gust Speed 61 mph    
Visibility 8 miles    
Events      
Averages and records for this station are not official NWS values.
T = Trace of Precipitation, MM = Missing Value Source: NWS Daily Summary

Daily Weather History Graph

Daily Weather History Graph

Search for Another Location

Airport or City:

Trip Planner

Search our weather history database for the weather conditions in past years. The results will help you decide how hot, cold, wet, or windy it might be!

Date:

Astronomy

Dec. 19, 2012 Rise Set
Actual Time 7:02 AM MST 5:01 PM MST
Civil Twilight 6:34 AM MST 5:28 PM MST
Nautical Twilight 6:04 AM MST 5:59 PM MST
Astronomical Twilight 5:33 AM MST 6:29 PM MST
Moon 11:33 AM MST (12/19) No Moon Set
Length of Visible Light 10h 53m
Length of Day
9h 59m
Waxing Crescent, 45% of the Moon is Illuminated
Dec 19
Waxing Crescent
Dec 19
First Quarter
Dec 28
Full
Jan 4
Last Quarter
Jan 11
New

Hourly Weather History & Observations

Time (MST) Temp. Windchill Dew Point Humidity Pressure Visibility Wind Dir Wind Speed Gust Speed Precip Events Conditions
12:58 AM 49.8 °F - 19.0 °F 30% 29.62 in 10.0 mi SSE 11.5 mph - N/A   Clear
1:58 AM 48.2 °F - 18.3 °F 31% 29.59 in 10.0 mi SSE 15.0 mph - N/A   Partly Cloudy
2:58 AM 51.3 °F - 16.9 °F 26% 29.58 in 10.0 mi SSE 15.0 mph - N/A   Clear
3:58 AM 50.9 °F - 16.0 °F 25% 29.58 in 10.0 mi SSE 15.0 mph 21.9 mph N/A   Clear
4:58 AM 47.8 °F - 16.5 °F 29% 29.59 in 10.0 mi South 11.5 mph - N/A   Partly Cloudy
5:58 AM 47.3 °F - 17.6 °F 31% 29.60 in 10.0 mi South 18.4 mph 29.9 mph N/A   Clear
6:58 AM 46.4 °F 40.1 °F 17.6 °F 32% 29.61 in 10.0 mi SSE 15.0 mph 27.6 mph N/A   Clear
7:58 AM 49.3 °F - 25.9 °F 40% 29.63 in 10.0 mi South 11.5 mph 18.4 mph N/A   Clear
8:19 AM 50.0 °F - 26.6 °F 40% 29.73 in 10.0 mi South 12.7 mph 17.3 mph N/A   Clear
8:21 AM 50.0 °F - 26.6 °F 40% 29.74 in 10.0 mi SSW 17.3 mph 23.0 mph N/A   Clear
8:22 AM 50.0 °F - 26.6 °F 40% 29.74 in 10.0 mi SSW 20.7 mph 34.5 mph N/A   Clear
8:38 AM 53.6 °F - 30.2 °F 41% 29.73 in 10.0 mi SW 33.4 mph 47.2 mph N/A   Squalls
8:58 AM 54.5 °F - 30.2 °F 39% 29.62 in 10.0 mi WSW 29.9 mph 48.3 mph N/A   Clear
9:58 AM 54.9 °F - 33.6 °F 45% 29.66 in 8.0 mi WSW 28.8 mph 42.6 mph N/A   Clear
10:58 AM 54.0 °F - 27.5 °F 36% 29.68 in 5.0 mi WSW 31.1 mph 44.9 mph N/A   Haze
11:56 AM 53.6 °F - 21.2 °F 28% 29.67 in 2.0 mi West 33.4 mph 50.6 mph N/A   Widespread Dust
11:58 AM 53.6 °F - 21.2 °F 28% 29.77 in 4.0 mi West 40.3 mph 48.3 mph N/A   Haze
12:08 PM 53.6 °F - 19.4 °F 26% 29.76 in 2.0 mi West 41.4 mph 51.8 mph N/A   Haze
12:13 PM 53.6 °F - 17.6 °F 24% 29.76 in 1.5 mi West 43.7 mph 55.2 mph N/A   Haze
12:23 PM 51.8 °F - 17.6 °F 26% 29.76 in 1.0 mi West 41.4 mph 61.0 mph N/A   Widespread Dust
12:28 PM 51.8 °F - 15.8 °F 24% 29.77 in 1.0 mi West 42.6 mph 56.4 mph N/A   Widespread Dust
12:43 PM 51.8 °F - 12.2 °F 21% 29.76 in 1.8 mi West 42.6 mph 51.8 mph N/A   Widespread Dust
12:48 PM 51.8 °F - 12.2 °F 21% 29.75 in 2.0 mi West 39.1 mph 51.8 mph N/A   Haze
12:58 PM 51.8 °F - 8.6 °F 18% 29.67 in 3.0 mi West 39.1 mph 51.8 mph N/A   Widespread Dust
1:03 PM 51.8 °F - 6.8 °F 16% 29.79 in 4.0 mi West 28.8 mph 48.3 mph N/A   Haze
1:58 PM 52.0 °F - 5.7 °F 15% 29.76 in 10.0 mi NW 23.0 mph 29.9 mph N/A   Clear
2:58 PM 50.7 °F - 7.5 °F 17% 29.81 in 8.0 mi WNW 24.2 mph 28.8 mph N/A   Clear
3:58 PM 48.2 °F - 11.1 °F 22% 29.85 in 9.0 mi WNW 19.6 mph 28.8 mph N/A   Clear
4:58 PM 44.4 °F 36.6 °F 7.3 °F 22% 29.95 in 10.0 mi NNW 18.4 mph 32.2 mph N/A   Clear
5:58 PM 40.6 °F 31.2 °F 4.8 °F 23% 30.01 in 10.0 mi NNW 20.7 mph - N/A   Clear
6:58 PM 36.1 °F 28.7 °F 5.0 °F 27% 30.08 in 10.0 mi North 10.4 mph - N/A   Clear
7:58 PM 36.1 °F 25.5 °F 4.5 °F 27% 30.12 in 10.0 mi North 19.6 mph 26.5 mph N/A   Clear
8:58 PM 35.4 °F 26.4 °F 5.7 °F 29% 30.14 in 10.0 mi North 13.8 mph - N/A   Clear
9:58 PM 32.4 °F 23.5 °F 7.7 °F 36% 30.21 in 10.0 mi North 11.5 mph - N/A   Clear
10:58 PM 28.2 °F 18.9 °F 5.7 °F 39% 30.22 in 10.0 mi North 10.4 mph - N/A   Clear
11:58 PM 27.3 °F 20.9 °F 5.5 °F 40% 30.25 in 10.0 mi NNE 5.8 mph - N/A   Clear